TimeCST,TemperatureF,Dew PointF,Humidity,Sea Level PressureIn,VisibilityMPH,Wind Direction,Wind SpeedMPH,Gust SpeedMPH,PrecipitationIn,Events,Conditions,WindDirDegrees,DateUTC
12:53 AM,28.0,19.9,72,30.22,9.0,SE,4.6,-,N/A,,Overcast,140,2013-03-03 06:53:00
1:53 AM,28.9,21.9,75,30.20,9.0,SE,4.6,-,N/A,,Overcast,140,2013-03-03 07:53:00
2:53 AM,30.0,21.9,72,30.18,10.0,SE,3.5,-,N/A,,Overcast,140,2013-03-03 08:53:00
3:53 AM,30.0,21.0,69,30.15,10.0,SE,5.8,-,N/A,,Partly Cloudy,140,2013-03-03 09:53:00
4:53 AM,28.9,21.0,72,30.14,10.0,SSE,6.9,-,N/A,,Clear,160,2013-03-03 10:53:00
5:53 AM,28.4,21.2,74,30.12,10.0,South,6.9,-,N/A,,Clear,170,2013-03-03 11:53:00
6:53 AM,28.9,19.9,69,30.14,10.0,SSE,4.6,-,N/A,,Clear,150,2013-03-03 12:53:00
7:53 AM,32.0,21.0,64,30.12,10.0,South,6.9,-,N/A,,Clear,170,2013-03-03 13:53:00
8:53 AM,37.0,21.9,54,30.11,10.0,South,12.7,-,N/A,,Clear,170,2013-03-03 14:53:00
9:53 AM,44.1,24.1,45,30.09,10.0,South,13.8,-,N/A,,Clear,180,2013-03-03 15:53:00
10:53 AM,48.0,26.1,42,30.05,10.0,South,16.1,-,N/A,,Clear,190,2013-03-03 16:53:00
11:53 AM,50.0,27.0,41,30.01,10.0,South,12.7,20.7,N/A,,Scattered Clouds,190,2013-03-03 17:53:00
12:53 PM,54.0,28.9,38,29.96,10.0,South,13.8,-,N/A,,Clear,170,2013-03-03 18:53:00
1:53 PM,57.0,30.0,36,29.91,10.0,South,16.1,21.9,N/A,,Clear,180,2013-03-03 19:53:00
2:53 PM,59.0,30.0,33,29.88,10.0,South,16.1,-,N/A,,Clear,190,2013-03-03 20:53:00
3:53 PM,57.0,30.0,36,29.86,10.0,SSW,17.3,-,N/A,,Clear,200,2013-03-03 21:53:00
4:53 PM,55.0,28.9,37,29.85,10.0,South,13.8,-,N/A,,Clear,180,2013-03-03 22:53:00
5:53 PM,54.0,30.0,40,29.84,10.0,South,10.4,-,N/A,,Clear,170,2013-03-03 23:53:00
6:53 PM,51.1,28.9,43,29.85,10.0,South,8.1,-,N/A,,Clear,170,2013-03-04 00:53:00
7:53 PM,50.0,28.9,44,29.83,10.0,South,9.2,-,N/A,,Clear,170,2013-03-04 01:53:00
8:53 PM,48.9,28.0,44,29.82,10.0,SE,6.9,-,N/A,,Clear,140,2013-03-04 02:53:00
9:53 PM,46.9,28.9,50,29.81,10.0,SE,9.2,-,N/A,,Clear,140,2013-03-04 03:53:00
10:53 PM,46.0,28.9,51,29.78,10.0,SE,9.2,-,N/A,,Clear,130,2013-03-04 04:53:00
11:53 PM,46.0,28.9,51,29.75,10.0,SE,10.4,19.6,N/A,,Clear,140,2013-03-04 05:53:00